[[{"header":{"parameterUnit":"m.s-1","parameterCategory":1,"la1":30.2991,"la2":30.254,"lo1":-89.0895,"lo2":-89.0444,"dy":0.0017,"dx":0.0017,"nx":28,"ny":28,"refTime":"2026-02-05T03:00:00:Z","depth":0,"parameterNumber":2,"parameterNumberName":"U-component_of_WINDS"},"data":[0,0,0,0,0,0,0,0,0,0,0,0,0,0,0,0,0,0,0,0,0,0,0,0,0,0,0,0,0,0,0,0,0,0,0,0,0,0,0,0,0,0,0,0,0,0,0,0,0,0,0,0,0,0,0,0,0,0,3.4427,3.4428,0,3.454,3.4541,3.4543,3.4475,3.4471,3.4468,3.4465,3.4584,3.459,3.4596,0,0,0,0,0,0,0,0,0,0,0,0,0,3.4155,3.416,3.4427,3.4428,3.443,3.454,3.4541,3.4543,3.4475,3.4471,3.4467,3.4464,3.4582,3.4589,3.4596,0,0,0,0,0,0,0,0,0,0,0,0,0,3.4271,3.4162,3.4426,3.4409,3.4408,3.454,3.4541,3.4543,3.4476,3.4471,3.4466,3.4462,3.4579,3.4588,3.4597,3.4753,0,0,3.4626,3.463,0,0,0,0,0,0,0,0,3.4264,3.4281,3.441,3.441,3.441,3.4488,3.4489,3.4614,3.4477,3.4451,3.4465,3.4459,3.4556,3.4567,3.4599,3.4758,3.4763,3.4626,3.4632,3.4636,3.4639,0,0,0,0,0,0,0,3.4257,3.4276,3.4472,3.4412,3.4412,3.4396,3.4408,3.4512,3.4529,3.4452,3.4448,3.4462,3.4555,3.459,3.4601,3.4765,3.4626,3.4634,3.464,3.4644,3.5059,3.5065,0,0,0,0,0,0,3.4249,3.427,3.4468,3.4475,3.4324,3.4405,3.4418,3.4468,3.4528,3.4532,3.4466,3.4458,3.4577,3.459,3.4605,3.4792,3.4636,3.4645,3.465,3.5054,3.5061,3.5066,0,0,0,0,0,0,3.4244,3.4268,3.4463,3.4371,3.4395,3.4415,3.4472,3.4473,3.4508,3.4538,3.4541,3.4499,3.4573,3.4592,3.4717,3.4795,3.4649,3.4657,3.5048,3.5056,3.5064,3.5167,0,0,0,0,0,0,3.4236,3.4266,3.4325,3.4373,3.44,3.4573,3.4477,3.4479,3.4524,3.4515,3.457,3.4574,3.4571,3.4703,3.4726,3.4805,3.4665,3.5041,3.5051,3.5061,3.5157,3.5178,3.5196,0,0,0,0,0,3.4227,3.4349,3.4328,3.4352,3.4473,3.4577,3.4593,3.4586,3.453,3.459,3.461,3.4572,3.4783,3.4717,3.4742,3.4825,3.5036,3.5048,3.506,3.5148,3.5174,3.5195,0,0,0,0,0,0,3.431,3.4355,3.4332,3.4474,3.4522,3.4565,3.464,3.4613,3.4679,3.4668,3.4657,3.467,3.4801,3.4825,3.475,3.498,3.4901,3.4919,3.4959,3.4984,3.5003,3.4995,3.4672,0,0,0,0,0,3.4345,3.4425,3.446,3.4582,3.4607,3.462,3.4665,3.4655,3.4705,3.4726,3.4754,3.4805,3.4883,3.4934,3.5007,3.516,3.5172,3.523,3.5249,3.5265,3.5281,3.5365,3.5392,3.5107,3.5107,3.5107,0,0,3.4418,3.4453,3.4504,3.46,3.4636,3.472,3.4638,3.4729,3.4792,3.474,3.486,3.4883,3.4939,3.5078,3.5141,3.5103,3.5362,3.5281,3.5293,3.5301,3.538,3.5407,3.5431,3.5115,3.5114,3.5112,0,0,3.4594,3.4628,3.4733,3.4772,3.4827,3.4835,3.4861,3.4909,3.4922,3.5042,3.5005,3.508,3.5213,3.5255,3.5294,3.5487,3.5456,3.5511,3.5614,3.5696,3.5718,3.5738,3.5809,3.5834,3.5527,3.5527,3.5527,0,3.4678,3.4802,3.4791,3.4887,3.493,3.4887,3.4995,3.5032,3.511,3.5142,3.5097,3.5265,3.5299,3.5449,3.5496,3.5529,3.5559,3.5505,3.5716,3.5735,3.5754,3.5821,3.5847,3.5534,3.5533,3.5532,3.5532,0,3.4903,3.499,3.5069,3.5144,3.5197,3.5298,3.5304,3.5359,3.5345,3.5358,3.5482,3.5522,3.5603,3.5637,3.5625,3.5786,3.5761,3.5716,3.5637,3.5788,3.5851,3.5876,3.5543,3.5541,3.5539,3.5537,0,0,3.5135,3.5204,3.5233,3.5267,3.5326,3.5394,3.5494,3.5572,3.562,3.5675,3.576,3.5875,3.5834,3.5878,3.5871,3.5942,3.6095,3.5889,3.5891,3.5927,3.6277,3.6311,3.634,3.6074,3.6079,3.6083,3.6272,0,3.5316,3.5489,3.5483,3.5645,3.5726,3.5686,3.5773,3.582,3.5835,3.5906,3.5923,3.6005,3.5945,3.5971,3.6041,3.6062,3.6165,3.6048,3.6154,3.6158,3.6142,3.6373,3.6409,3.6586,3.6297,3.6301,3.6304,0,3.555,3.5613,3.5783,3.5831,3.5865,3.5943,3.6015,3.6084,3.6136,3.6142,3.6192,3.6173,3.6276,3.6193,3.6335,3.6256,3.6299,3.6316,3.6323,3.6333,3.6241,3.6391,3.6642,3.6669,3.6342,3.6339,3.6337,0,3.5704,3.5831,3.5949,3.598,3.6039,3.6095,3.6122,3.6169,3.6218,3.6281,3.6313,3.6388,3.6429,3.6488,3.6491,3.643,3.6635,3.6552,3.6644,3.6645,3.669,3.6687,3.6953,3.6716,3.6716,3.6715,3.6714,0,3.5907,3.6013,3.602,3.6093,3.6211,3.6203,3.6321,3.6343,3.6385,3.6463,3.6433,3.6507,3.6505,3.658,3.6583,3.6701,3.672,3.6728,3.6728,3.6732,3.6731,3.6761,3.6749,3.6722,3.6721,3.6719,3.6718,0,3.6099,3.6108,3.6235,3.628,3.6294,3.6379,3.6418,3.6489,3.6501,3.66,3.6622,3.6642,3.673,3.6738,3.6839,3.6841,3.6984,3.697,3.6967,3.6965,3.7057,3.7049,3.7352,3.7392,3.7128,3.713,3.7132,0,3.6229,3.631,3.6364,3.6413,3.6443,3.6524,3.6572,3.6568,3.6621,3.6687,3.675,3.6834,3.6902,3.7043,3.7068,3.7146,3.7134,3.7235,3.7145,3.7147,3.7137,3.7133,3.7142,3.7252,3.7255,3.7258,3.726,0,3.6459,3.6459,3.653,3.6604,3.6663,3.6721,3.6775,3.6817,3.682,3.6881,3.6969,3.7022,3.7125,3.721,3.7287,3.7316,3.729,3.7287,3.7313,3.7318,3.7314,3.7319,3.7015,3.7281,3.7279,3.7277,3.7276,3.7275,3.6625,3.6695,3.6744,3.6825,3.6865,3.6917,3.6985,3.7006,3.7079,3.7163,3.7156,3.7255,3.7307,3.7407,3.7442,3.752,3.7486,3.7523,3.7533,3.7542,3.7552,3.73,3.7534,3.7533,3.7533,3.7532,3.7532,0,3.6854,3.6884,3.6958,3.7035,3.7099,3.7067,3.7125,3.7181,3.7268,3.7318,3.7385,3.7488,3.757,3.7601,3.7682,3.7738,3.7728,3.776,3.7756,3.7764,3.7577,3.7547,3.7767,3.7767,3.7767,3.7767,3.7766,3.7766,3.6981,3.7099,3.7105,3.7243,3.7272,3.7368,3.7404,3.7452,3.7492,3.7608,3.7676,3.7695,3.7738,3.7822,3.7897,3.7904,3.7936,3.7973,3.7975,3.78,3.7777,3.7754,3.7726,3.7979,3.798,3.8155,3.8157,3.8158]},{"header":{"parameterUnit":"m.s-1","parameterCategory":1,"la1":30.2991,"la2":30.254,"lo1":-89.0895,"lo2":-89.0444,"dy":0.0017,"dx":0.0017,"nx":28,"ny":28,"refTime":"2026-02-05T03:00:00:Z","depth":0,"parameterNumber":3,"parameterNumberName":"V-component_of_WINDS"},"data":[0,0,0,0,0,0,0,0,0,0,0,0,0,0,0,0,0,0,0,0,0,0,0,0,0,0,0,0,0,0,0,0,0,0,0,0,0,0,0,0,0,0,0,0,0,0,0,0,0,0,0,0,0,0,0,0,0,0,-0.9886,-0.9888,0,-1.0058,-1.006,-1.0062,-1.0093,-1.0091,-1.009,-1.0089,-1.0269,-1.0275,-1.0281,0,0,0,0,0,0,0,0,0,0,0,0,0,-0.9587,-0.9592,-0.9886,-0.9888,-0.989,-1.0058,-1.0061,-1.0063,-1.0093,-1.0091,-1.009,-1.0088,-1.0267,-1.0275,-1.0282,0,0,0,0,0,0,0,0,0,0,0,0,0,-0.9734,-0.9594,-0.9885,-0.9925,-0.993,-1.0058,-1.0061,-1.0064,-1.0093,-1.0091,-1.0089,-1.0087,-1.0265,-1.0274,-1.0283,-1.0384,0,0,-1.0311,-1.0315,0,0,0,0,0,0,0,0,-0.9725,-0.9745,-0.9917,-0.9923,-0.9929,-1.0052,-1.0021,-1.0171,-1.0094,-1.0032,-1.0089,-1.0086,-1.0199,-1.0214,-1.0251,-1.0392,-1.04,-1.0312,-1.0318,-1.0322,-1.0324,0,0,0,0,0,0,0,-0.9715,-0.9737,-0.9954,-0.992,-0.9927,-0.9936,-0.9955,-1.005,-1.0126,-1.0037,-1.004,-1.0059,-1.0202,-1.0242,-1.0255,-1.0403,-1.0312,-1.032,-1.0326,-1.0329,-1.0638,-1.064,0,0,0,0,0,0,-0.9697,-0.9729,-0.9949,-0.9959,-0.9819,-0.9943,-0.9964,-1.0015,-1.0125,-1.0139,-1.0061,-1.006,-1.0227,-1.0244,-1.0262,-1.0389,-1.0322,-1.033,-1.0336,-1.0635,-1.0639,-1.0641,0,0,0,0,0,0,-0.9691,-0.9716,-0.9942,-0.9845,-0.9874,-0.9951,-1.0007,-1.0019,-1.0059,-1.0143,-1.0157,-1.0088,-1.0226,-1.0249,-1.0354,-1.0395,-1.0334,-1.0343,-1.0632,-1.0636,-1.064,-1.0641,0,0,0,0,0,0,-0.9682,-0.9714,-0.9752,-0.9845,-0.9879,-1.0029,-1.001,-1.0024,-1.0075,-1.0075,-1.0172,-1.0186,-1.0226,-1.034,-1.0363,-1.0407,-1.035,-1.0629,-1.0634,-1.0639,-1.0638,-1.0645,-1.0651,0,0,0,0,0,-0.9671,-0.9746,-0.9753,-0.978,-0.9928,-1.0031,-1.0051,-1.0095,-1.0078,-1.0117,-1.0171,-1.0182,-1.0387,-1.035,-1.0376,-1.0424,-1.0626,-1.0633,-1.0638,-1.0635,-1.0644,-1.0651,0,0,0,0,0,0,-0.9656,-0.9759,-0.9768,-0.9875,-0.9944,-1.0036,-1.0087,-1.0102,-1.0178,-1.0176,-1.0228,-1.025,-1.0352,-1.0399,-1.0356,-1.0528,-1.0506,-1.0517,-1.0494,-1.0503,-1.0509,-1.0496,-1.0358,0,0,0,0,0,-0.9665,-0.9739,-0.9825,-0.9911,-0.9945,-1.001,-1.0057,-1.0085,-1.0159,-1.0189,-1.025,-1.0323,-1.0404,-1.0456,-1.0535,-1.0645,-1.0668,-1.0691,-1.0697,-1.0702,-1.0712,-1.0776,-1.0787,-1.0661,-1.0661,-1.0661,0,0,-0.9684,-0.9749,-0.9793,-0.991,-0.9966,-1.0043,-1.0034,-1.0116,-1.0174,-1.0201,-1.0304,-1.0352,-1.0437,-1.0545,-1.0596,-1.0587,-1.0752,-1.071,-1.0713,-1.072,-1.0783,-1.0795,-1.0805,-1.0665,-1.0664,-1.0664,0,0,-0.9759,-0.9815,-0.9894,-0.9951,-1.0036,-1.008,-1.0098,-1.0189,-1.0221,-1.0325,-1.0347,-1.0418,-1.0556,-1.0616,-1.0664,-1.0764,-1.0777,-1.0788,-1.0822,-1.0883,-1.0893,-1.0902,-1.094,-1.0952,-1.0797,-1.0797,-1.0797,0,-0.9773,-0.9888,-0.9932,-1.0014,-1.0065,-1.0092,-1.0173,-1.0227,-1.0335,-1.037,-1.0358,-1.0533,-1.0592,-1.0715,-1.0739,-1.0777,-1.0802,-1.0777,-1.0888,-1.0898,-1.0907,-1.0943,-1.0956,-1.0798,-1.0798,-1.0798,-1.0798,0,-0.9902,-0.9982,-1.0035,-1.0137,-1.0195,-1.0276,-1.0334,-1.0387,-1.041,-1.0455,-1.0562,-1.0634,-1.0728,-1.0759,-1.0783,-1.0887,-1.0879,-1.0877,-1.0855,-1.0919,-1.0954,-1.0968,-1.0799,-1.0799,-1.0798,-1.0798,0,0,-0.9972,-1.0098,-1.0117,-1.0164,-1.0262,-1.0325,-1.0408,-1.0499,-1.0545,-1.0619,-1.0691,-1.0807,-1.0806,-1.0861,-1.0892,-1.0946,-1.1023,-1.0938,-1.0941,-1.0952,-1.1144,-1.1146,-1.1161,-1.1032,-1.1035,-1.1037,-1.1137,0,-1.0059,-1.0206,-1.0249,-1.0373,-1.0449,-1.0477,-1.0549,-1.0618,-1.0662,-1.0734,-1.0784,-1.0866,-1.0858,-1.0891,-1.0946,-1.1001,-1.1062,-1.0995,-1.1102,-1.1105,-1.108,-1.1179,-1.1181,-1.1272,-1.1151,-1.1153,-1.1155,0,-1.0181,-1.0256,-1.0387,-1.0476,-1.051,-1.0574,-1.0662,-1.073,-1.0809,-1.0838,-1.09,-1.0927,-1.1016,-1.0989,-1.1115,-1.1068,-1.1115,-1.1149,-1.1154,-1.1166,-1.1134,-1.1195,-1.1302,-1.1316,-1.1177,-1.1175,-1.1173,0,-1.022,-1.0354,-1.0451,-1.049,-1.0596,-1.0641,-1.0687,-1.0764,-1.0817,-1.0895,-1.093,-1.1018,-1.1066,-1.1134,-1.1185,-1.116,-1.1307,-1.1283,-1.1335,-1.1334,-1.1365,-1.1363,-1.1482,-1.1393,-1.1393,-1.1392,-1.1392,0,-1.0314,-1.0394,-1.047,-1.0529,-1.0621,-1.067,-1.0759,-1.0807,-1.0876,-1.0947,-1.0976,-1.1043,-1.1105,-1.118,-1.122,-1.1319,-1.134,-1.1368,-1.1378,-1.1366,-1.1363,-1.1398,-1.1393,-1.1396,-1.1395,-1.1395,-1.1394,0,-1.0373,-1.0427,-1.0535,-1.0626,-1.0651,-1.0714,-1.0794,-1.0854,-1.0899,-1.0989,-1.1013,-1.1085,-1.1176,-1.1232,-1.1347,-1.1375,-1.1484,-1.1491,-1.1456,-1.1461,-1.151,-1.1505,-1.1657,-1.1681,-1.1575,-1.1575,-1.1576,0,-1.043,-1.0492,-1.059,-1.0639,-1.0685,-1.0764,-1.0818,-1.087,-1.0925,-1.1021,-1.107,-1.1162,-1.1238,-1.1381,-1.1445,-1.1534,-1.1545,-1.1592,-1.1558,-1.1545,-1.1547,-1.1543,-1.1551,-1.1597,-1.1598,-1.1599,-1.16,0,-1.0525,-1.0549,-1.0625,-1.0711,-1.0774,-1.0845,-1.0915,-1.0954,-1.1019,-1.108,-1.1172,-1.1231,-1.1348,-1.144,-1.1534,-1.1585,-1.1604,-1.1609,-1.1627,-1.1615,-1.1594,-1.1608,-1.1473,-1.1606,-1.1605,-1.1605,-1.1605,-1.1604,-1.0586,-1.0643,-1.0721,-1.0806,-1.0864,-1.0929,-1.0991,-1.1044,-1.1121,-1.122,-1.1246,-1.1343,-1.1423,-1.1552,-1.1604,-1.1682,-1.1676,-1.17,-1.1706,-1.1712,-1.1713,-1.158,-1.1699,-1.1699,-1.1699,-1.1699,-1.1699,0,-1.0684,-1.0736,-1.0813,-1.091,-1.0977,-1.0988,-1.1067,-1.1123,-1.1207,-1.1279,-1.1354,-1.1461,-1.155,-1.1621,-1.1714,-1.1763,-1.1774,-1.1786,-1.1783,-1.1795,-1.1713,-1.1689,-1.1775,-1.1775,-1.1775,-1.1775,-1.1775,-1.1775,-1.0743,-1.0841,-1.0874,-1.1002,-1.1054,-1.1148,-1.1192,-1.1254,-1.1312,-1.1429,-1.1503,-1.1549,-1.1622,-1.172,-1.1804,-1.1823,-1.1856,-1.1866,-1.1887,-1.1809,-1.18,-1.1792,-1.1771,-1.1872,-1.1873,-1.1963,-1.1964,-1.1964]}]]